sat.trackr.live / text

‹ back to catalog

IRIDIUM 181

NORAD 56726 · 2023-068S

PAYLOAD ACTIVE UNKNOWN

§ Identity

Operator
Country
US
Launch date
2023-05-20
Launch site
AFWTR
Launch vehicle
Mass (kg)
RCS (m²)

Purposes: comms

External: N2YO · Heavens-Above · Gunter

§ Orbital elements

Epoch: 2026-05-25T00:28:28.059744Z

Period
99.77 min
Inclination
86.4506°
Eccentricity
0.0002146
Mean motion
14.43310685 rev/d
Perigee alt
746.1 km
Apogee alt
749.1 km
Semi-major
7,125.7 km
B*
7.5495e-5
RAAN
66.4728°
Arg perigee
89.9808°
Mean anomaly
270.1639°
Rev number
15,909

§ Raw data

IRIDIUM 1811 56726U 23068S   26145.01976921  .00000274  00000+0  75495-4 0  99942 56726  86.4506  66.4728 0002146  89.9808 270.1639 14.43310685159092

JSON: /api/v1/satellites/56726 · /tle

For live sub-satellite position, see the globe view (requires WebGL).

§ Visibility from observer

Set your observer location to see the next 7 days of passes ≥ 10°. The values pass through the URL so the page stays shareable.

No JS? Fill the form by hand. The geolocation button needs JavaScript.